Flag for U.S.A. Weather past 2 weeks in Fairbanks, Alaska, U.S.A.

Now
38 °F

Sunny.


Feels Like: 34 °F
Forecast: 34 / 50 °F
Wind: 5 mph from East

Location: Wainwright U. S. Army Airfield

Current Time: Aug 30, 2014 at 9:23:19 AM

Latest Report: Aug 30, 2014 at 8:56 AM


Visibility: 10 mi

Pressure: 29.74 "Hg

Humidity: 83%

Dew point: 33 °F

Location of FairbanksLocation

Historic Weather in Fairbanks — Graph

°F

Fairbanks temperature yesterday

Maximum temperature yesterday: 54 °F (at 12:56 AM)
Minimum temperature yesterday: 43 °F (at 11:56 PM)
Average temperature yesterday: 50 °F

Past Weeks' High & Low Weather Summary

 TemperatureHumidityPressure
High74 °F (Aug 24, 2:56 PM)96% (Aug 18, 3:56 AM)30.24 "Hg (Aug 18, 3:56 AM)
Low32 °F (Aug 30, 5:56 AM)32% (Aug 24, 2:56 PM)29.52 "Hg (Aug 29, 11:55 AM)
Average56 °F72%29.84 "Hg
* Reported Aug 15 7:56 PM — Aug 30 7:56 AM, Fairbanks, Weather by CustomWeather, © 2014

Note: Actual official high and low records may vary slightly from our data, if they occured in-between our weather recording intervals... More about our weather records

Advertising

Fairbanks weather history for previous 24 hours

 ConditionsComfort  
Time TempWeatherWind HumidityBarometerVisibility
7:56 AM
Aug 30
34 °FScattered clouds.No wind88%29.74 "Hg10 mi
6:56 AM32 °FClear.No wind88%29.74 "Hg10 mi
5:56 AM32 °FClear.No wind88%29.74 "Hg10 mi
4:56 AM35 °FClear.3 mph88%29.73 "Hg10 mi
3:56 AM38 °FOvercast.3 mph86%29.72 "Hg10 mi
2:56 AM39 °FOvercast.3 mph86%29.71 "Hg10 mi
1:56 AM38 °FOvercast.5 mph86%29.71 "Hg10 mi
12:56 AM39 °FOvercast.3 mph86%29.70 "Hg10 mi
11:56 PM
Aug 29
43 °FPassing clouds.5 mph74%29.69 "Hg10 mi
10:56 PM45 °FPassing clouds.7 mph68%29.68 "Hg10 mi
9:56 PM46 °FScattered clouds.9 mph66%29.67 "Hg10 mi
8:56 PM48 °FSunny.12 mph59%29.65 "Hg10 mi
7:56 PM50 °FSunny.14 mph54%29.64 "Hg10 mi
11:55 AM54 °FDrizzle. Partly sunny.12 mph77%29.52 "Hg13 mi
10:55 AM52 °FDrizzle. Mostly cloudy.13 mph82%29.53 "Hg13 mi
9:55 AM52 °FCloudy.14 mph82%29.53 "Hg13 mi
Weather by CustomWeather, © 2014

See weather overviewHow to use our weather pages